EW9551 Weather Reports


time (UTC)temp
C
wind
direction
speed
KPH
gust
KPH
rain 1hr
cm
rain 24hr
cm
rain mn
cm
humidity
%
barometer
mb
20260505073552 12 0 0.0 0.0 0.03 2.21 0.99 97 969.1
20260505070549 11 0 0.0 0.0 0.03 2.21 0.99 97 969.0
20260505063545 11 0 0.0 0.0 0.05 2.18 0.97 96 968.9
20260505060547 11 0 0.0 0.0 0.08 2.21 0.97 96 969.0
20260505053545 11 140 0.0 0.0 0.05 2.18 0.89 96 968.9
20260505050543 11 0 0.0 0.0 0.03 2.18 0.89 96 968.8
20260505033542 11 0 0.0 0.0 0.10 2.11 0.79 96 969.4
20260505030541 11 0 0.0 0.0 0.08 2.03 0.74 96 969.4
20260505023541 11 0 0.0 0.0 0.10 2.03 0.71 96 969.6
20260505021927 11 0 0.0 0.0 0.13 1.96 0.66 96 970.1
20260505013537 11 134 0.0 0.0 0.23 1.93 0.61 96 970.2
20260505010536 11 129 0.0 0.0 0.18 1.83 0.51 96 970.2
20260505003542 11 130 0.0 0.0 0.10 1.70 0.38 96 970.7
20260505000537 11 130 0.0 0.0 0.10 1.65 0.36 96 970.7
20260504233534 11 134 0.0 0.0 0.15 1.60 0.30 95 971.1
20260504230533 11 163 0.0 0.0 0.23 1.55 0.25 95 971.3
20260504223531 11 0 0.0 1.6 0.28 1.45 0.15 95 971.3
20260504220530 11 0 0.0 3.2 0.23 1.32 0.03 95 971.3
20260504213530 11 0 0.0 8.0 0.13 1.17 1.17 95 971.8
20260504210530 11 0 0.0 1.6 0.05 1.09 1.09 95 971.6
20260504203532 11 0 0.0 6.4 0.03 1.04 1.04 95 971.6
20260504200530 11 0 0.0 1.6 0.00 1.02 1.02 95 971.8
20260504193530 11 0 0.0 0.0 0.00 1.02 1.02 95 971.7
20260504191912 11 0 0.0 0.0 0.00 1.02 1.02 94 971.8
20260504183532 12 0 0.0 0.0 0.00 1.02 1.02 94 971.9
20260504180530 12 0 0.0 0.0 0.03 1.02 1.02 94 972.2
20260504173533 12 0 0.0 0.0 0.05 1.02 1.02 94 972.5
20260504170529 12 132 0.0 0.0 0.05 0.99 0.99 94 972.6
20260504150530 12 162 0.0 0.0 0.05 0.91 0.91 93 973.4
20260504130527 11 0 0.0 3.2 0.13 0.81 0.81 94 974.3
20260504110526 11 0 0.0 0.0 0.20 0.58 0.56 92 974.5
20260504081856 12 0 0.0 0.0 0.00 0.08 0.08 88 974.0